Tracking 20621 objects as of 31-Mar-2020
HD Live streaming from Space Station
objects crossing your sky now

ARIANE 2 DEB

Track ARIANE 2 DEB now!


NORAD ID: 33558
Int'l Code: 1989-006BA
Perigee: 1,214.3 km
Apogee: 35,692.5 km
Inclination: 10.7 °
Period: 648.7 minutes
Semi major axis: 24824 km
RCS: 0.1528 m2 (medium)
Launch date: January 27, 1989
Source: France (FR)
Launch site: FRENCH GUIANA (FRGUI)

Note: This is SATELLITE DEBRIS
aabbcc
Your satellite tracking list
Your tracking list is empty




NASA's NSSDC Master Catalog

Two Line Element Set (TLE):
1 33558U 89006BA  20065.08286213  .00000021  00000-0  00000+0 0  9992
2 33558  10.6762 353.3718 6944411 272.1861  16.7727  2.21965390124097
Source of the keplerian elements: AFSPC